Location: Copeville
(33.0796°N, 96.4155°W)
Time: 05:57:04
(UTC+00:00)

Cosmos 1328 Rocket - Pass Details

Date: 07 July 2022
Orbit: 600 x 627 km, 82.5° (Epoch: 14 August)

Event Time Altitude Azimuth Distance (km) Brightness Sun altitude
Rises 09:27:41 0° 331° (NNW) 2,889 7.2 -20.2°
Reaches altitude 10° 09:30:44 10° 308° (NW) 1,973 6.1 -19.7°
Enters shadow 09:31:56 14° 293° (WNW) 1,745 5.7 -19.5°
